Home > Weather > Istres > Past weeks

Flag for France Past Weather in Istres, Provence-Alpes-Côte d'Azur, France — Yesterday and Last 2 Weeks

Now
70 °F

Clear.


Feels Like: 70 °F
Forecast: 65 / 85 °F
Wind: No wind

Location: Istres Airport

Current Time: Jun 30, 2016 at 12:03:26 AM

Latest Report: Jun 29, 2016 at 11:30 PM


Visibility: 10 mi

Pressure: 29.98 "Hg

Humidity: 83%

Dew Point: 64 °F

Location of IstresLocation

Past Weather in Istres — Graph

°F

Istres Temperature Yesterday

Maximum temperature yesterday: 84 °F (at 12:30 PM)
Minimum temperature yesterday: 63 °F (at 5:30 AM)
Average temperature yesterday: 73 °F

High & Low Weather Summary for the Past Weeks

 TemperatureHumidityPressure
High93 °F (Jun 25, 5:30 PM)94% (Jun 18, 11:00 PM)30.18 "Hg (Jun 18, 11:00 PM)
Low55 °F (Jun 17, 5:30 AM)23% (Jun 27, 4:00 PM)29.56 "Hg (Jun 15, 6:30 PM)
Average73 °F55%29.99 "Hg
* Reported Jun 14 11:00 PM — Jun 29 11:00 PM, Istres, Weather by CustomWeather, © 2016

Note: Actual official high and low records may vary slightly from our data, if they occured in-between our weather recording intervals... More about our weather records

Advertising

Istres Weather History for the Previous 24 Hours

Scroll right to see more
 ConditionsComfort  
Time TempWeatherWind HumidityBarometerVisibility
11:00 PM
Wed, Jun 29
70 °FClear.1 mph83%29.95 "Hg10 mi
10:30 PM70 °FClear.No wind83%29.98 "Hg10 mi
10:00 PM70 °FSunny.2 mph83%29.95 "Hg10 mi
9:30 PM68 °FSunny.7 mph94%29.95 "Hg10 mi
9:00 PM70 °FSunny.10 mph88%29.95 "Hg10 mi
8:30 PM72 °FSunny.12 mph83%29.95 "Hg10 mi
8:00 PM73 °FSunny.14 mph78%29.92 "Hg10 mi
7:30 PM75 °FSunny.16 mph74%29.92 "Hg10 mi
7:00 PM79 °FSunny.13 mph61%29.92 "Hg10 mi
6:30 PM81 °FSunny.12 mph54%29.92 "Hg10 mi
6:00 PM79 °FSunny.12 mph61%29.95 "Hg10 mi
5:30 PM79 °FSunny.15 mph65%29.95 "Hg10 mi
5:00 PM79 °FPassing clouds.14 mph61%29.95 "HgN/A
4:30 PM81 °FSunny.16 mph62%29.95 "Hg10 mi
4:00 PM81 °FSunny.16 mph58%29.95 "Hg10 mi
3:30 PM81 °FSunny.15 mph54%29.95 "Hg10 mi
3:00 PM82 °FSunny.13 mph48%29.95 "Hg10 mi
2:30 PM82 °FSunny.13 mph48%29.95 "Hg10 mi
2:00 PM82 °FPassing clouds.14 mph45%29.98 "HgN/A
1:30 PM82 °FPassing clouds.10 mph42%29.98 "HgN/A
1:00 PM84 °FPassing clouds.8 mph43%29.98 "HgN/A
12:30 PM84 °FPassing clouds.6 mph45%29.98 "HgN/A
12:00 PM82 °FSunny.5 mph48%29.98 "Hg10 mi
11:30 AM81 °FSunny.5 mph48%29.98 "Hg10 mi
11:00 AM77 °FSunny.2 mph51%29.98 "Hg10 mi
10:30 AM77 °FSunny.2 mph47%29.98 "Hg10 mi
10:00 AM75 °FPassing clouds.5 mph50%29.98 "HgN/A
9:30 AM73 °FSunny.5 mph57%29.98 "Hg10 mi
9:00 AM73 °FPassing clouds.6 mph53%29.98 "HgN/A
8:30 AM72 °FSunny.6 mph57%30.01 "Hg10 mi
8:00 AM72 °FPassing clouds.5 mph61%29.98 "HgN/A
7:30 AM68 °FPassing clouds.5 mph69%29.98 "HgN/A
7:00 AM66 °FClear.6 mph73%29.98 "Hg10 mi
6:30 AM64 °FClear.5 mph78%29.98 "Hg10 mi
6:00 AM64 °FClear.3 mph83%29.98 "Hg10 mi
5:30 AM63 °FClear.3 mph88%29.98 "Hg10 mi
5:00 AM64 °FClear.2 mph83%29.98 "Hg10 mi
4:30 AM64 °FClear.3 mph83%29.98 "Hg10 mi
4:00 AM64 °FClear.1 mph83%29.98 "Hg10 mi
3:30 AM66 °FClear.2 mph83%29.98 "Hg10 mi
3:00 AM68 °FPassing clouds.3 mph78%29.98 "HgN/A
2:30 AM68 °FClear.6 mph83%30.01 "Hg10 mi
2:00 AM68 °FClear.5 mph83%30.01 "Hg10 mi
1:30 AM68 °FClear.3 mph83%30.01 "Hg10 mi
1:00 AM68 °FClear.3 mph83%30.01 "Hg10 mi
12:30 AM70 °FClear.5 mph78%30.01 "Hg10 mi
12:00 AM70 °FClear.2 mph78%30.01 "Hg10 mi
Weather by CustomWeather, © 2016

See weather overviewHow to use our weather pages